Thunderstorms From: 26-05-2018 09:00 Until: 27-05-2018 05:00 warning for: Thunderstorms Level: Yellow info button

Although rather usual in this region, locally or potentially dangerous phenomena are expected. (such as local winds, summer thunderstorms, rising streams or high waves) Be aware and pay attention to the latest weather updates, especially if you carry out activities exposed to weather or close to a stream or shoreline. 


Meteo18 Weather Cam more information Meteo18 Weather Cam


warning for Thunderstorms more information blitzortung!


Rain radar more information rain snow radar


Visit our other weather sites:

Template documentation
and downloads

And another site



Weather Underground History page Text

Daily Summary for January 13, 2018 Units:  Metric    English   Both
« Previous Day
Next Day »
Daily Weekly Monthly Yearly Custom
  High: Low: Average:
Temperature: -17.8 °C -17.9 °C -16.5 °C
Dew Point: -17.8 °C -18.2 °C -16.9 °C
Humidity: Humidity % 86 % 95 %
Wind Speed: 0 km/h 0 km/h 2.7 km/h
Wind Gust: 0 km/h - -
Wind:- - East
Pressure: 0 hPa 34395 hPa -
Precipitation: 12.7 mm    
Historical Graphs
 
 
Tabular Data for January 13, 2018
Time Temperature Dew Point Pressure Wind Wind Speed Wind Gust Humidity Rainfall Rate (Hourly)
-17.8 °C -17.8 °C 0 hPa Calm     Humidity % 0 mm
00:04 -15.9 °C -16.2 °C 34682.8 hPa NNW 2.3 km/h 2.6 km/h 97 % 0 mm
00:10 -16 °C -16.2 °C 34682.8 hPa NW 2.3 km/h 2.6 km/h 97 % 0 mm
00:16 -16 °C -16.2 °C 34682.8 hPa Calm   2.6 km/h 97 % 0 mm
00:22 -16.2 °C -16.5 °C 34682.8 hPa Calm   2.6 km/h 96 % 0 mm
00:40 -16.4 °C -16.7 °C 34669.3 hPa NNE 2.3 km/h 2.6 km/h 97 % 0 mm
00:46 -16.5 °C -16.7 °C 34669.3 hPa Calm   2.6 km/h 97 % 0 mm
00:52 -16.7 °C -17 °C 34669.3 hPa NE 5.1 km/h 5.1 km/h 96 % 0 mm
00:58 -16.8 °C -17.2 °C 34669.3 hPa NE 5.1 km/h 7.7 km/h 96 % 0 mm
01:10 -16.9 °C -17.2 °C 34669.3 hPa Calm   2.6 km/h 97 % 0 mm
01:16 -16.8 °C -17.1 °C 34669.3 hPa Calm   2.6 km/h 97 % 7.62 mm
01:22 -16.8 °C -17 °C 34669.3 hPa NNE 2.3 km/h 2.6 km/h 97 % 7.62 mm
01:28 -16.7 °C -16.9 °C 34669.3 hPa NNE 2.3 km/h 2.6 km/h 97 % 7.62 mm
01:34 -16.7 °C -16.9 °C 34659.1 hPa NE 2.3 km/h 2.6 km/h 97 % 7.62 mm
01:40 -16.7 °C -16.9 °C 34659.1 hPa Calm     97 % 7.62 mm
01:46 -16.8 °C -17 °C 34659.1 hPa Calm     97 % 7.62 mm
01:52 -16.8 °C -17 °C 34645.6 hPa Calm     97 % 7.62 mm
01:58 -16.8 °C -17.1 °C 34645.6 hPa Calm     97 % 7.62 mm
02:04 -16.9 °C -17.1 °C 34645.6 hPa Calm     97 % 7.62 mm
02:10 -16.9 °C -17.2 °C 34645.6 hPa Calm     97 % 7.62 mm
02:16 -16.9 °C -17.2 °C 34645.6 hPa Calm     97 % 0 mm
02:22 -17 °C -17.2 °C 34635.4 hPa Calm     97 % 0 mm
02:28 -17 °C -17.2 °C 34635.4 hPa Calm   2.6 km/h 97 % 0 mm
02:41 -17.1 °C -17.3 °C 34635.4 hPa Calm   2.6 km/h 97 % 0 mm
02:53 -17.1 °C -17.3 °C 34635.4 hPa Calm     97 % 0 mm
02:59 -17.2 °C -17.4 °C 34635.4 hPa Calm     97 % 0 mm
03:11 -17.3 °C -17.6 °C 34625.2 hPa Calm     97 % 0 mm
03:17 -17.3 °C -17.6 °C 34635.4 hPa WNW 2.3 km/h 5.1 km/h 97 % 0 mm
03:23 -17.4 °C -17.7 °C 34635.4 hPa West 2.3 km/h 5.1 km/h 97 % 0 mm
03:35 -17.3 °C -17.5 °C 34625.2 hPa Calm     97 % 0 mm
03:41 -17.3 °C -17.5 °C 34611.7 hPa Calm     97 % 0 mm
03:47 -17.3 °C -17.5 °C 34611.7 hPa Calm     97 % 0 mm
03:53 -17.1 °C -17.3 °C 34611.7 hPa Calm     98 % 0 mm
03:59 -17.3 °C -17.5 °C 34611.7 hPa Calm     97 % 0 mm
04:05 -17.3 °C -17.6 °C 34611.7 hPa Calm     97 % 0 mm
04:11 -17.3 °C -17.6 °C 34611.7 hPa Calm     97 % 0 mm
04:17 -17.2 °C -17.4 °C 34611.7 hPa Calm     98 % 0 mm
04:35 -17.3 °C -17.4 °C 34601.5 hPa Calm     98 % 0 mm
04:41 -17.3 °C -17.5 °C 34601.5 hPa Calm     98 % 0 mm
04:47 -17.3 °C -17.5 °C 34611.7 hPa Calm     98 % 0 mm
04:53 -17.4 °C -17.7 °C 34601.5 hPa Calm     97 % 0 mm
04:59 -17.6 °C -17.8 °C 34601.5 hPa Calm     97 % 0 mm
05:05 -17.6 °C -17.8 °C 34611.7 hPa Calm     97 % 0 mm
05:11 -17.6 °C -17.8 °C 34601.5 hPa Calm     97 % 0 mm
05:17 -17.7 °C -17.9 °C 34601.5 hPa Calm     97 % 0 mm
05:23 -17.9 °C -18.2 °C 34601.5 hPa SSE 2.3 km/h 2.6 km/h 97 % 0 mm
05:29 -17.9 °C -18.2 °C 34601.5 hPa Calm   2.6 km/h 97 % 0 mm
05:35 -17.9 °C -18.1 °C 34601.5 hPa Calm   2.6 km/h 97 % 0 mm
05:41 -17.9 °C -18.1 °C 34601.5 hPa Calm     97 % 0 mm
05:47 -17.8 °C -18.1 °C 34601.5 hPa Calm   2.6 km/h 97 % 0 mm
05:53 -17.8 °C -18 °C 34591.4 hPa Calm     97 % 0 mm
05:59 -17.7 °C -17.9 °C 34591.4 hPa Calm     97 % 0 mm
06:05 -17.7 °C -17.9 °C 34591.4 hPa Calm     97 % 0 mm
06:11 -17.7 °C -17.9 °C 34591.4 hPa Calm     97 % 0 mm
06:17 -17.7 °C -17.8 °C 34591.4 hPa Calm     98 % 0 mm
06:24 -17.7 °C -17.9 °C 34591.4 hPa Calm     97 % 0 mm
06:30 -17.7 °C -17.9 °C 34591.4 hPa Calm     97 % 0 mm
06:36 -17.7 °C -17.9 °C 34577.8 hPa Calm     97 % 0 mm
06:42 -17.7 °C -17.9 °C 34577.8 hPa Calm     97 % 0 mm
06:48 -17.7 °C -17.9 °C 34577.8 hPa Calm     97 % 0 mm
06:54 -17.7 °C -17.9 °C 34577.8 hPa Calm     97 % 0 mm
07:00 -17.6 °C -17.8 °C 34577.8 hPa Calm     97 % 0 mm
07:06 -17.6 °C -17.8 °C 34577.8 hPa Calm     97 % 0 mm
07:12 -17.6 °C -17.8 °C 34567.7 hPa Calm     97 % 0 mm
07:18 -17.6 °C -17.8 °C 34567.7 hPa Calm     98 % 0 mm
07:24 -17.6 °C -17.7 °C 34567.7 hPa Calm     98 % 0 mm
07:30 -17.6 °C -17.7 °C 34567.7 hPa Calm     98 % 0 mm
07:36 -17.6 °C -17.7 °C 34567.7 hPa Calm     98 % 0 mm
07:42 -17.5 °C -17.7 °C 34567.7 hPa Calm     98 % 0 mm
07:48 -17.4 °C -17.6 °C 34567.7 hPa Calm     98 % 7.62 mm
08:00 -17.4 °C -17.6 °C 34554.1 hPa Calm     98 % 7.62 mm
08:07 -17.4 °C -17.6 °C 34554.1 hPa Calm     98 % 7.62 mm
08:13 -17.4 °C -17.6 °C 34554.1 hPa Calm   2.6 km/h 98 % 7.62 mm
08:19 -17.3 °C -17.5 °C 34554.1 hPa Calm   2.6 km/h 98 % 7.62 mm
08:25 -17.3 °C -17.5 °C 34554.1 hPa ENE 7.6 km/h 7.7 km/h 98 % 7.62 mm
08:31 -17.4 °C -17.6 °C 34554.1 hPa East 5.1 km/h 7.7 km/h 98 % 7.62 mm
08:37 -17.3 °C -17.5 °C 34554.1 hPa ENE 10.3 km/h 10.3 km/h 98 % 7.62 mm
08:43 -17.3 °C -17.5 °C 34554.1 hPa East 15.6 km/h 15.6 km/h 98 % 7.62 mm
08:49 -17.4 °C -17.6 °C 34554.1 hPa ESE 2.3 km/h 7.7 km/h 98 % 0 mm
08:55 -17.4 °C -17.6 °C 34554.1 hPa Calm   5.1 km/h 98 % 0 mm
09:01 -17.3 °C -17.5 °C 34554.1 hPa Calm   5.1 km/h 98 % 0 mm
09:07 -17.3 °C -17.5 °C 34554.1 hPa NNE 7.6 km/h 10.3 km/h 98 % 0 mm
09:13 -17.3 °C -17.5 °C 34554.1 hPa NNE 5.1 km/h 10.3 km/h 98 % 0 mm
09:19 -17.3 °C -17.4 °C 34554.1 hPa East 2.3 km/h 10.3 km/h 98 % 0 mm
09:25 -17.3 °C -17.4 °C 34544 hPa NE 5.1 km/h 7.7 km/h 98 % 0 mm
09:31 -17.3 °C -17.4 °C 34554.1 hPa NNE 5.1 km/h 5.1 km/h 98 % 0 mm
09:37 -17.3 °C -17.4 °C 34554.1 hPa NNE 2.3 km/h 5.1 km/h 98 % 0 mm
09:47 -17.1 °C -17.3 °C 34554.1 hPa Calm   2.6 km/h 98 % 0 mm
09:53 -17.1 °C -17.2 °C 34554.1 hPa Calm   2.6 km/h 98 % 0 mm
10:03 -17 °C -17.2 °C 34544 hPa NE 5.1 km/h 7.7 km/h 98 % 0 mm
10:09 -16.9 °C -17.1 °C 34544 hPa NNE 5.1 km/h 5.1 km/h 98 % 0 mm
10:17 -16.8 °C -17 °C 34544 hPa Calm   5.1 km/h 98 % 0 mm
10:23 -16.8 °C -17 °C 34544 hPa Calm   2.6 km/h 98 % 0 mm
10:29 -16.8 °C -16.9 °C 34544 hPa East 7.6 km/h 10.3 km/h 98 % 0 mm
10:35 -16.7 °C -16.9 °C 34533.8 hPa ENE 5.1 km/h 10.3 km/h 98 % 0 mm
10:41 -16.8 °C -16.9 °C 34533.8 hPa NE 7.6 km/h 10.3 km/h 98 % 0 mm
10:47 -16.8 °C -17 °C 34533.8 hPa ENE 2.3 km/h 10.3 km/h 98 % 0 mm
10:53 -16.7 °C -16.9 °C 34533.8 hPa NE 2.3 km/h 5.1 km/h 98 % 0 mm
10:59 -16.7 °C -16.8 °C 34533.8 hPa NNE 2.3 km/h 10.3 km/h 98 % 0 mm
11:05 -16.6 °C -16.8 °C 34533.8 hPa ENE 5.1 km/h 15.6 km/h 98 % 0 mm
11:11 -16.6 °C -16.8 °C 34533.8 hPa ENE 5.1 km/h 10.3 km/h 98 % 0 mm
11:19 -16.5 °C -16.7 °C 34533.8 hPa NE 7.6 km/h 15.6 km/h 98 % 0 mm
11:25 -16.4 °C -16.6 °C 34533.8 hPa ENE 10.3 km/h 12.9 km/h 98 % 0 mm
11:31 -16.4 °C -16.6 °C 34533.8 hPa ENE 5.1 km/h 15.6 km/h 98 % 0 mm
11:37 -16.5 °C -16.7 °C 34520.3 hPa NNE 7.6 km/h 20.8 km/h 98 % 0 mm
11:43 -16.4 °C -16.6 °C 34520.3 hPa ENE 2.3 km/h 15.6 km/h 98 % 0 mm
11:49 -16.3 °C -16.4 °C 34520.3 hPa East 10.3 km/h 12.9 km/h 98 % 0 mm
11:55 -16.2 °C -16.4 °C 34520.3 hPa East 12.7 km/h 15.6 km/h 98 % 0 mm
12:01 -16.2 °C -16.4 °C 34520.3 hPa NNE 5.1 km/h 15.6 km/h 98 % 0 mm
12:07 -16.2 °C -16.3 °C 34520.3 hPa East 5.1 km/h 18.2 km/h 98 % 0 mm
12:13 -16.1 °C -16.2 °C 34520.3 hPa NE 7.6 km/h 18.2 km/h 98 % 0 mm
12:19 -16.2 °C -16.3 °C 34520.3 hPa NE 10.3 km/h 10.3 km/h 98 % 0 mm
12:25 -16.1 °C -16.2 °C 34510.1 hPa ENE 5.1 km/h 18.2 km/h 98 % 0 mm
12:31 -16.1 °C -16.2 °C 34510.1 hPa ENE 7.6 km/h 23.3 km/h 98 % 0 mm
12:37 -16 °C -16.2 °C 34496.6 hPa ENE 12.7 km/h 15.6 km/h 98 % 0 mm
12:44 -15.9 °C -16.1 °C 34496.6 hPa NE 7.6 km/h 15.6 km/h 98 % 0 mm
12:49 -15.8 °C -16 °C 34496.6 hPa East 15.6 km/h 18.2 km/h 98 % 0 mm
12:55 -15.9 °C -16.1 °C 34496.6 hPa East 7.6 km/h 15.6 km/h 98 % 0 mm
13:02 -15.8 °C -16 °C 34486.4 hPa ENE 2.3 km/h 10.3 km/h 98 % 0 mm
13:08 -15.7 °C -15.9 °C 34486.4 hPa ENE 5.1 km/h 12.9 km/h 98 % 0 mm
13:14 -15.6 °C -15.8 °C 34476.3 hPa NE 2.3 km/h 5.1 km/h 98 % 0 mm
13:20 -15.5 °C -15.7 °C 34476.3 hPa East 10.3 km/h 10.3 km/h 98 % 0 mm
13:25 -15.5 °C -15.7 °C 34462.7 hPa NE 10.3 km/h 15.6 km/h 97 % 0 mm
13:31 -15.5 °C -15.7 °C 34462.7 hPa NNE 2.3 km/h 12.9 km/h 97 % 0 mm
13:38 -15.4 °C -15.6 °C 34462.7 hPa East 12.7 km/h 20.8 km/h 97 % 0 mm
13:44 -15.3 °C -15.5 °C 34462.7 hPa East 2.3 km/h 7.7 km/h 97 % 0 mm
13:50 -15.3 °C -15.7 °C 34452.6 hPa ESE 2.3 km/h 10.3 km/h 95 % 0 mm
13:55 -15.2 °C -15.6 °C 34452.6 hPa ENE 5.1 km/h 10.3 km/h 95 % 0 mm
14:02 -15.1 °C -15.6 °C 34452.6 hPa East 7.6 km/h 12.9 km/h 94 % 0 mm
14:08 -15.1 °C -15.7 °C 34452.6 hPa ENE 5.1 km/h 18.2 km/h 92 % 0 mm
14:14 -14.9 °C -15.7 °C 34442.4 hPa ENE 5.1 km/h 12.9 km/h 90 % 0 mm
14:20 -14.8 °C -15.7 °C 34442.4 hPa NE 7.6 km/h 10.3 km/h 90 % 0 mm
14:25 -14.8 °C -15.7 °C 34442.4 hPa ENE 5.1 km/h 10.3 km/h 89 % 0 mm
14:38 -14.7 °C -15.8 °C 34428.8 hPa ENE 5.1 km/h 15.6 km/h 87 % 0 mm
14:44 -14.6 °C -15.7 °C 34442.4 hPa ENE 10.3 km/h 15.6 km/h 87 % 0 mm
14:50 -14.6 °C -15.8 °C 34428.8 hPa ENE 10.3 km/h 12.9 km/h 86 % 0 mm
14:56 -14.7 °C -15.9 °C 34428.8 hPa East 7.6 km/h 15.6 km/h 86 % 0 mm
15:02 -14.7 °C -15.8 °C 34428.8 hPa NE 10.3 km/h 12.9 km/h 87 % 0 mm
15:10 -14.9 °C -15.9 °C 34418.7 hPa NE 10.3 km/h 18.2 km/h 88 % 0 mm
15:16 -15 °C -15.8 °C 34418.7 hPa NE 20.9 km/h 20.9 km/h 90 % 0 mm
15:22 -15.1 °C -15.9 °C 34418.7 hPa NNE 10.3 km/h 18.2 km/h 90 % 0 mm
15:28 -15.1 °C -15.9 °C 34418.7 hPa NE 2.3 km/h 23.3 km/h 90 % 0 mm
15:34 -15.1 °C -15.9 °C 34418.7 hPa NE 7.6 km/h 15.6 km/h 90 % 0 mm
15:40 -15.2 °C -16 °C 34418.7 hPa NNE 7.6 km/h 12.9 km/h 90 % 0 mm
15:46 -15.2 °C -15.9 °C 34418.7 hPa NNW 2.3 km/h 12.9 km/h 91 % 0 mm
16:00 -15.3 °C -16 °C 34418.7 hPa NE 10.3 km/h 15.6 km/h 92 % 0 mm
16:08 -15.3 °C -16 °C 34405.1 hPa NNE 15.6 km/h 20.8 km/h 92 % 0 mm
16:14 -15.3 °C -16 °C 34418.7 hPa NE 10.3 km/h 15.6 km/h 92 % 0 mm
16:20 -15.3 °C -16 °C 34418.7 hPa NE 12.7 km/h 15.6 km/h 92 % 0 mm
16:26 -15.4 °C -16.1 °C 34405.1 hPa NE 5.1 km/h 10.3 km/h 91 % 0 mm
16:32 -15.5 °C -16.2 °C 34418.7 hPa NNE 5.1 km/h 10.3 km/h 92 % 0 mm
16:38 -15.6 °C -16.3 °C 34418.7 hPa NNW 2.3 km/h 12.9 km/h 92 % 0 mm
16:44 -15.7 °C -16.2 °C 34418.7 hPa NNW 5.1 km/h 12.9 km/h 93 % 0 mm
16:56 -15.7 °C -16.3 °C 34418.7 hPa NNW 5.1 km/h 12.9 km/h 93 % 0 mm
17:02 -15.7 °C -16.3 °C 34418.7 hPa NNW 5.1 km/h 7.7 km/h 93 % 0 mm
17:08 -15.8 °C -16.3 °C 34418.7 hPa Calm   7.7 km/h 93 % 0 mm
17:16 -15.9 °C -16.4 °C 34418.7 hPa NNE 5.1 km/h 5.1 km/h 93 % 0 mm
17:22 -15.9 °C -16.4 °C 34418.7 hPa Calm   2.6 km/h 93 % 0 mm
17:28 -15.9 °C -16.4 °C 34418.7 hPa NE 5.1 km/h 7.7 km/h 94 % 0 mm
17:34 -15.8 °C -16.4 °C 34405.1 hPa NNE 5.1 km/h 7.7 km/h 93 % 0 mm
17:40 -15.8 °C -16.3 °C 34418.7 hPa NE 5.1 km/h 7.7 km/h 94 % 0 mm
17:46 -15.8 °C -16.3 °C 34418.7 hPa NE 7.6 km/h 10.3 km/h 93 % 0 mm
17:52 -15.8 °C -16.3 °C 34405.1 hPa NE 5.1 km/h 10.3 km/h 93 % 0 mm
17:58 -15.8 °C -16.3 °C 34405.1 hPa Calm   5.1 km/h 93 % 0 mm
18:04 -15.9 °C -16.4 °C 34405.1 hPa Calm   2.6 km/h 93 % 0 mm
18:10 -15.9 °C -16.4 °C 34405.1 hPa NE 2.3 km/h 5.1 km/h 93 % 0 mm
18:16 -15.9 °C -16.4 °C 34405.1 hPa Calm   2.6 km/h 93 % 0 mm
18:22 -15.9 °C -16.5 °C 34405.1 hPa Calm     93 % 0 mm
18:28 -16 °C -16.5 °C 34405.1 hPa Calm     94 % 0 mm
18:35 -16 °C -16.5 °C 34405.1 hPa Calm     94 % 0 mm
18:41 -16 °C -16.5 °C 34405.1 hPa Calm     94 % 0 mm
18:47 -16.1 °C -16.6 °C 34405.1 hPa Calm     94 % 0 mm
18:53 -16.1 °C -16.6 °C 34405.1 hPa Calm     94 % 0 mm
18:59 -16.1 °C -16.6 °C 34405.1 hPa Calm     94 % 0 mm
19:05 -16.1 °C -16.6 °C 34405.1 hPa Calm     94 % 0 mm
19:11 -16.1 °C -16.4 °C 34405.1 hPa Calm     95 % 0 mm
19:17 -16.1 °C -16.4 °C 34405.1 hPa NE 2.3 km/h 2.6 km/h 95 % 0 mm
19:23 -16.1 °C -16.6 °C 34405.1 hPa Calm   2.6 km/h 94 % 0 mm
19:29 -16.2 °C -16.7 °C 34405.1 hPa Calm     94 % 0 mm
19:35 -16.2 °C -16.7 °C 34405.1 hPa Calm     94 % 0 mm
19:41 -16.2 °C -16.7 °C 34405.1 hPa Calm     94 % 0 mm
19:57 -16.3 °C -16.8 °C 34405.1 hPa Calm     94 % 0 mm
20:03 -16.3 °C -16.7 °C 34405.1 hPa Calm     95 % 0 mm
20:09 -16.3 °C -16.7 °C 34405.1 hPa WNW 2.3 km/h 2.6 km/h 95 % 0 mm
20:15 -16.3 °C -16.8 °C 34405.1 hPa Calm     94 % 0 mm
20:21 -16.5 °C -17 °C 34405.1 hPa Calm   2.6 km/h 94 % 0 mm
20:28 -16.6 °C -16.9 °C 34405.1 hPa WNW 2.3 km/h 2.6 km/h 95 % 0 mm
20:34 -16.6 °C -16.9 °C 34405.1 hPa Calm   2.6 km/h 95 % 0 mm
20:50 -16.4 °C -16.7 °C 34395 hPa Calm     96 % 0 mm
20:56 -16.4 °C -16.8 °C 34395 hPa Calm   2.6 km/h 95 % 0 mm
21:02 -16.5 °C -16.9 °C 34395 hPa Calm     95 % 0 mm
21:08 -16.6 °C -17.1 °C 34395 hPa Calm     94 % 0 mm
21:18 -16.6 °C -16.9 °C 34395 hPa Calm   2.6 km/h 95 % 0 mm
21:24 -16.6 °C -16.9 °C 34395 hPa Calm   2.6 km/h 95 % 0 mm
21:30 -16.6 °C -16.9 °C 34395 hPa Calm   2.6 km/h 95 % 0 mm
21:36 -16.6 °C -17.1 °C 34395 hPa North 2.3 km/h 2.6 km/h 94 % 0 mm
21:42 -16.6 °C -16.9 °C 34395 hPa Calm     95 % 0 mm
21:48 -16.6 °C -16.9 °C 34395 hPa Calm   2.6 km/h 95 % 0 mm
21:54 -16.5 °C -16.9 °C 34395 hPa Calm   2.6 km/h 95 % 0 mm
22:00 -16.5 °C -17 °C 34395 hPa Calm   2.6 km/h 94 % 0 mm
22:06 -16.5 °C -17 °C 34395 hPa Calm     94 % 0 mm
22:12 -16.6 °C -17.1 °C 34395 hPa Calm   2.6 km/h 94 % 0 mm
22:22 -16.6 °C -17.2 °C 34395 hPa Calm   2.6 km/h 93 % 0 mm
22:29 -16.6 °C -17 °C 34395 hPa Calm     95 % 0 mm
22:35 -16.6 °C -16.9 °C 34395 hPa Calm   2.6 km/h 95 % 0 mm
22:41 -16.6 °C -17 °C 34395 hPa Calm     95 % 0 mm
22:49 -16.5 °C -16.9 °C 34395 hPa Calm     95 % 0 mm
22:55 -16.5 °C -16.9 °C 34395 hPa Calm     95 % 0 mm
23:05 -16.4 °C -16.8 °C 34395 hPa Calm     95 % 0 mm
23:11 -16.4 °C -16.8 °C 34395 hPa Calm     95 % 0 mm
23:17 -16.4 °C -16.9 °C 34395 hPa Calm     94 % 0 mm
23:23 -16.4 °C -16.9 °C 34395 hPa Calm     94 % 0 mm
23:29 -16.4 °C -16.9 °C 34395 hPa Calm     94 % 0 mm
23:35 -16.5 °C -17 °C 34395 hPa Calm     94 % 0 mm
23:41 -16.5 °C -17 °C 34395 hPa Calm     94 % 0 mm
23:47 -16.5 °C -17 °C 34405.1 hPa Calm     94 % 0 mm
23:53 -16.4 °C -16.9 °C 34405.1 hPa Calm     94 % 0 mm
23:59 -16.4 °C -16.9 °C 34405.1 hPa Calm     94 % 0 mm
Meteo18
Compliments of Weather Underground - 4 mb

Script developed by  Jim McMurry - jmcmurry@mwt.net Adapted for the template by  Wim van der Kuil - Leuven-Template.eu

You find our weather info also at:

European Weather Network

Weather Underground

Equipment we use:

Weather-station
Davis Vue

Weather-program
Meteobridge

Weather-server
Raspberry PI 2 B+

Provider
1 and 1

Davis Vue

Meteobridge

Raspberry PI 2 B+

1 and 1